Sigfox identifier Datetime Temperature Humidity SNR
003939A4 2018-10-09 08:46:41 21 39 12.2
003939A4 2018-10-09 07:42:08 21 39 12.3
003939A4 2018-10-09 06:37:33 21 38 12.6
003939A4 2018-10-09 05:33:00 21 38 12.8
003939A4 2018-10-09 01:14:54 21 37 13.8
003939A4 2018-10-08 22:01:17 21 37 13.9
003939A4 2018-10-08 18:47:37 20.8 37 14.1
003939A4 2018-10-08 16:38:33 20.8 36 14.1
003939A4 2018-10-08 15:34:01 20.8 36 13.9
003939A4 2018-10-08 14:29:26 20.8 36 13.9
003939A4 2018-10-08 13:24:52 20.8 36 13.8
003939A4 2018-10-08 12:20:20 20.6 36 13.9
003939A4 2018-10-08 11:15:48 20.4 33 14.2
003939A4 2018-10-08 10:11:15 20.4 33 14.1
003939A4 2018-10-08 08:02:12 20.4 34 14
003939A4 2018-10-08 06:57:38 20.4 35 14
003939A4 2018-10-08 05:53:09 20.4 35 14.3
003939A4 2018-10-08 04:48:38 20.4 36 14.4
003939A4 2018-10-08 03:44:04 20.5 36 14.4
003939A4 2018-10-08 02:39:29 20.6 36 14.4
003939A4 2018-10-08 01:34:58 20.6 37 14.4
003939A4 2018-10-08 00:30:24 20.6 37 14.3
003939A4 2018-10-07 23:25:49 20.6 37 14.2
003939A4 2018-10-07 22:21:20 20.6 37 14.1
003939A4 2018-10-07 21:16:46 20.6 38 14.1
003939A4 2018-10-07 20:12:13 20.6 38 14
003939A4 2018-10-07 19:07:42 20.6 38 14.4
003939A4 2018-10-07 18:03:12 20.6 38 13.5
003939A4 2018-10-07 16:58:37 20.6 38 13.5
003939A4 2018-10-07 15:54:09 20.6 38 13.1
003939A4 2018-10-07 14:49:35 20.6 38 13.8
003939A4 2018-10-07 13:44:59 20.6 38 14.2
003939A4 2018-10-07 12:40:28 20.6 38 14.3
003939A4 2018-10-07 11:35:54 20.6 38 14.5
003939A4 2018-10-07 10:31:21 20.7 38 14.5
003939A4 2018-10-07 09:26:51 20.6 38 14.5
003939A4 2018-10-07 08:22:18 20.7 38 14.5
003939A4 2018-10-07 07:17:49 20.7 39 14.8
003939A4 2018-10-07 06:13:15 20.8 39 14.9
003939A4 2018-10-07 05:08:46 20.8 39 14.9
003939A4 2018-10-07 04:04:11 20.8 39 14.9
003939A4 2018-10-07 02:59:39 20.8 39 14.7
003939A4 2018-10-07 01:55:07 20.8 39 14.7
003939A4 2018-10-07 00:50:34 20.8 39 14.9
003939A4 2018-10-06 23:46:03 20.8 39 14.9
003939A4 2018-10-06 22:41:32 20.9 39 15.1
003939A4 2018-10-06 21:36:56 20.9 39 15.2
003939A4 2018-10-06 20:32:24 21 39 15.6
003939A4 2018-10-06 19:27:53 20.9 39 15.6
003939A4 2018-10-06 18:23:22 20.9 39 15.5
003939A4 2018-10-06 17:18:51 21 39 15.7
003939A4 2018-10-06 16:14:18 21 39 15.7
003939A4 2018-10-06 15:09:45 21 39 15.8
003939A4 2018-10-06 14:05:10 20.9 39 16
003939A4 2018-10-06 13:00:36 21 39 16.2
003939A4 2018-10-06 11:56:01 21 39 15.8
003939A4 2018-10-06 10:51:26 21 39 15.9
003939A4 2018-10-06 09:46:52 21 40 15.8
003939A4 2018-10-06 08:42:18 21 40 16.2
003939A4 2018-10-06 07:37:43 21.1 40 16.9
003939A4 2018-10-06 06:33:08 21.1 40 17.6
003939A4 2018-10-06 05:28:36 21.2 40 18.5
003939A4 2018-10-06 04:24:05 21.2 41 18.2
003939A4 2018-10-06 03:19:30 21.3 41 18.7
003939A4 2018-10-06 02:14:59 21.3 41 19.1
003939A4 2018-10-06 01:10:29 21.4 41 19.2
003939A4 2018-10-06 00:05:58 21.5 42 19.5
003939A4 2018-10-05 23:01:27 21.5 42 19.8
003939A4 2018-10-05 21:56:59 21.6 43 19.9
003939A4 2018-10-05 20:52:27 21.7 43 20.3
003939A4 2018-10-05 19:47:56 21.7 43 20.5
003939A4 2018-10-05 18:43:24 21.7 44 20.4
003939A4 2018-10-05 17:38:48 21.7 45 20.3
003939A4 2018-10-05 16:34:12 21.5 45 20.4
003939A4 2018-10-05 15:29:37 21.4 45 20.4
003939A4 2018-10-05 14:25:02 21.3 45 20.3
003939A4 2018-10-05 13:20:30 21.3 45 20.3
003939A4 2018-10-05 12:15:55 21.1 42 20.3
003939A4 2018-10-05 11:11:14 20.9 40 20.3
003939A4 2018-10-05 10:06:38 20.8 36 20.2
003939A4 2018-10-05 09:02:05 20.6 34 20.4
003939A4 2018-10-05 07:57:31 20.6 31 20.5
003939A4 2018-10-05 06:52:56 20.6 29 20.4
003939A4 2018-10-05 05:48:21 20.6 29 20.6
003939A4 2018-10-05 04:43:49 20.7 28 20.4
003939A4 2018-10-05 03:39:14 20.8 28 20.3
003939A4 2018-10-05 02:34:40 20.9 28 19.9
003939A4 2018-10-05 01:30:05 20.9 29 20.1
003939A4 2018-10-05 00:25:31 21 29 19.8
003939A4 2018-10-04 23:20:56 21 30 19.5
003939A4 2018-10-04 22:16:20 21 29 19.5
003939A4 2018-10-04 21:11:47 21.1 29 19.4
003939A4 2018-10-04 20:07:13 21.3 29 19.9
003939A4 2018-10-04 19:02:39 21.3 28 21.3
003939A4 2018-10-04 17:58:06 21.4 28 21
003939A4 2018-10-04 16:53:35 21.5 29 20.9
003939A4 2018-10-04 15:48:59 21 30 20.9
003939A4 2018-10-04 14:44:26 20.7 31 21.7
003939A4 2018-10-04 13:39:53 20.6 31 21.8
003939A4 2018-10-04 12:35:15 20.6 32 21.8
003939A4 2018-10-04 11:30:42 20.4 33 21.9
003939A4 2018-10-04 10:26:08 20.4 34 21.8
003939A4 2018-10-04 09:21:40 20.3 34 21.9
003939A4 2018-10-04 08:17:04 20.4 36 21.9
003939A4 2018-10-04 07:12:31 20.4 37 21.9
003939A4 2018-10-04 06:07:58 20.4 38 21.8
003939A4 2018-10-04 05:03:26 20.4 38 21.7
003939A4 2018-10-04 03:58:54 20.4 38 21.7
003939A4 2018-10-04 02:54:23 20.6 39 21.5
003939A4 2018-10-04 01:49:51 20.6 39 21.5
003939A4 2018-10-04 00:45:16 20.6 39 21.3
003939A4 2018-10-03 23:40:43 20.6 40 22.3
003939A4 2018-10-03 22:36:12 20.7 40 22.2
003939A4 2018-10-03 21:31:39 20.8 41 22.1
003939A4 2018-10-03 20:27:06 20.8 41 22.1
003939A4 2018-10-03 19:22:32 20.8 41 22
003939A4 2018-10-03 18:18:00 20.8 42 22
003939A4 2018-10-03 17:13:29 20.9 43 21.4
003939A4 2018-10-03 16:08:56 20.8 43 20
003939A4 2018-10-03 15:04:25 20.8 43 20.1
003939A4 2018-10-03 13:59:51 20.6 42 20.2
003939A4 2018-10-03 12:55:16 20.6 41 20.3
003939A4 2018-10-03 11:50:42 20.6 41 19
003939A4 2018-10-03 10:46:10 20.5 41 19
003939A4 2018-10-03 09:41:30 20.4 41 19.1
003939A4 2018-10-03 08:36:57 20.4 39 19.2
003939A4 2018-10-03 07:32:22 20.4 40 19.4
003939A4 2018-10-03 06:27:43 20.4 40 19.5
003939A4 2018-10-03 05:23:08 20.5 40 19.4
003939A4 2018-10-03 04:18:32 20.6 41 19.7
003939A4 2018-10-03 03:13:57 20.6 41 20
003939A4 2018-10-03 02:09:16 20.6 41 20.1
003939A4 2018-10-03 01:04:42 20.6 41 20.4
003939A4 2018-10-03 00:00:05 20.6 40 20.6
003939A4 2018-10-02 22:55:30 20.7 40 21
003939A4 2018-10-02 21:50:56 20.8 40 21.4
003939A4 2018-10-02 20:46:21 20.9 40 11.3
003939A4 2018-10-02 19:41:49 20.8 40 11.8
003939A4 2018-10-02 18:37:11 21 40 12.4
003939A4 2018-10-02 17:32:34 21 41 12.9
003939A4 2018-10-02 16:27:58 21 41 13.3
003939A4 2018-10-02 15:23:21 21 41 14.3
003939A4 2018-10-02 14:18:44 20.9 41 13.6
003939A4 2018-10-02 13:14:11 20.8 50 0